User: anonymous   Login
Location: Thompson
(55.7500°N, 97.8670°W)
Time: 15:03:47
(UTC-05:00)
Language:

Cosmos 1833 Rocket - Orbit

View from above orbital plane
View from above orbital plane
View from above satellite
View from above satellite

Ground track
Ground track

The orbit data is extracted from the following two-line orbital elements,

1 17590U 87027B   16147.70473370 -.00000172  00000-0 -62087-4 0  9995
2 17590  71.0042 243.7930 0005333 198.5461 161.5469 14.16725947509387
Epoch (UTC): 26 May 2016 16:54:48
Eccentricity: 0.0005333
inclination: 71.0042°
perigee height: 832 km
apogee height: 840 km
right ascension of ascending node: 243.7930°
argument of perigee: 198.5461°
revolutions per day: 14.16725947
mean anomaly at epoch: 161.5469°
orbit number at epoch: 50938

The dashed part of the orbit path shows where the satellite is in the earth's shadow,  

DLR